DW5444 Weather Reports


time (UTC)temp
F
wind
direction
speed
knots
gust
knots
rain 1hr
in
rain 24hr
in
rain mn
in
humidity
%
barometer
mb
20260903023019 54 87 3.5 7.0 0.02 0.07 0.07 84 1007.1
20260903021519 54 123 4.3 11.3 0.03 0.07 0.07 84 1007.2
20260903020016 54 69 3.5 10.4 0.02 0.06 0.06 84 1007.1
20260903014518 54 135 5.2 9.6 0.03 0.06 0.06 84 1007.1
20260903013015 54 71 4.3 11.3 0.03 0.05 0.05 84 1007.1
20260903011514 54 104 4.3 11.3 0.03 0.04 0.04 82 1007.1
20260903010016 54 121 7.0 12.2 0.03 0.04 0.04 81 1007.0
20260903004514 55 116 6.1 12.2 0.03 0.03 0.03 80 1007.2
20260903003012 55 138 6.1 13.0 0.02 0.02 0.02 80 1007.1
20260903001511 55 135 6.1 12.2 0.01 0.01 0.01 79 1007.1
20260903000017 56 137 5.2 13.9 0.01 0.01 0.01 77 1006.8
20260902234515 57 146 7.8 13.0 0.00 0.00 0.00 73 1006.9
20260902233010 57 177 5.2 12.2 0.00 0.00 0.00 71 1006.8
20260902231524 58 258 4.3 13.0 0.00 0.00 0.00 69 1006.8
20260902230008 59 236 5.2 9.6 0.00 0.00 0.00 67 1006.7
20260902224507 60 156 5.2 12.2 0.00 0.00 0.00 62 1006.5
20260902223007 60 132 5.2 13.0 0.00 0.00 0.00 59 1006.4
20260902221509 62 147 7.8 13.0 0.00 0.00 0.00 54 1006.5
20260902220008 63 202 7.0 13.9 0.00 0.00 0.00 47 1006.5
20260902214505 63 226 5.2 14.8 0.00 0.00 0.00 47 1006.4
20260902213005 66 241 7.0 13.9 0.00 0.00 0.00 41 1006.3
20260902211507 67 222 7.8 15.6 0.00 0.00 0.00 39 1006.1
20260902210004 67 225 7.0 13.0 0.00 0.00 0.00 41 1005.7
20260902204502 69 132 4.3 9.6 0.00 0.00 0.00 35 1005.1
20260902203002 71 234 6.1 15.6 0.00 0.00 0.00 35 1005.1
20260902201600 72 167 7.0 16.5 0.00 0.00 0.00 34 1005.2
20260902200112 70 229 7.8 13.9 0.00 0.00 0.00 38 1005.2
20260902194559 69 208 5.2 13.9 0.00 0.00 0.00 39 1005.6
20260902193053 69 145 5.2 13.9 0.00 0.00 0.00 38 1005.7
20260902191551 69 226 8.7 13.9 0.00 0.00 0.00 39 1005.7
20260902190049 69 178 7.0 11.3 0.00 0.00 0.00 40 1005.8
20260902184557 68 234 4.3 13.0 0.00 0.00 0.00 41 1005.8
20260902183046 69 204 6.1 12.2 0.00 0.00 0.00 40 1006.0
20260902181545 68 204 7.0 12.2 0.00 0.00 0.00 42 1006.1
20260902180101 65 294 2.6 8.7 0.00 0.00 0.00 49 1006.1
20260902174540 65 263 5.2 8.7 0.00 0.00 0.00 48 1006.0
20260902173038 66 233 4.3 7.8 0.00 0.00 0.00 48 1006.2
20260902171534 64 230 1.7 7.0 0.00 0.00 0.00 51 1006.4
20260902170033 63 278 4.3 7.0 0.00 0.00 0.00 53 1006.7
20260902164532 63 278 1.7 7.0 0.00 0.00 0.00 54 1006.7
20260902163028 62 309 2.6 4.3 0.00 0.00 0.00 55 1006.7
20260902161528 61 272 0.9 3.5 0.00 0.00 0.00 59 1006.9
20260902160021 60 282 2.6 5.2 0.00 0.00 0.00 60 1007.1
20260902154527 59 278 1.7 4.3 0.00 0.00 0.00 63 1007.3
20260902153016 58 261 2.6 5.2 0.00 0.00 0.00 65 1007.3
20260902151512 57 230 4.3 7.0 0.00 0.00 0.00 67 1007.3
20260902150012 57 211 3.5 5.2 0.00 0.00 0.00 68 1007.2
20260902144524 55 123 1.7 3.5 0.00 0.00 0.00 71 1007.4
20260902143004 51 119 1.7 4.3 0.00 0.00 0.00 79 1007.4
20260902141505 0 0.0 0.0 0.00 0.00 0.00 1007.5
20260902140057 0 0.0 0.0 0.00 0.00 0.00 1007.4
20260902134553 0 0.0 0.0 0.00 0.00 0.00 1007.4
20260902133049 0 0.0 0.0 0.00 0.00 0.00 1007.6
20260902131544 0 0.0 0.0 0.00 0.00 0.00 1007.4
20260902130039 0 0.0 0.0 0.00 0.00 0.00 1007.4
20260902124536 0 0.0 0.0 0.00 0.00 0.00 1007.4
20260902123033 0 0.0 0.0 0.00 0.00 0.00 1007.4
20260902121527 0 0.0 0.0 0.00 0.00 0.00 1007.6
20260902120022 51 225 3.5 6.1 0.00 0.00 0.00 74 1007.8
20260902114529 52 189 2.6 6.1 0.00 0.00 0.00 74 1007.9
20260902113033 52 166 2.6 6.1 0.00 0.00 0.00 74 1007.9
20260902111523 52 124 4.3 9.6 0.00 0.00 0.00 74 1007.9
20260902110019 52 126 4.3 7.8 0.00 0.00 0.00 74 1007.9
20260902104518 51 123 4.3 7.0 0.00 0.00 0.00 76 1007.8
20260902103026 51 126 3.5 7.0 0.00 0.00 0.00 77 1007.8
20260902101519 50 150 3.5 6.1 0.00 0.00 0.00 79 1007.7
20260902100017 50 146 1.7 3.5 0.00 0.00 0.00 80 1007.5
20260902094515 50 140 1.7 2.6 0.00 0.00 0.00 81 1007.2
20260902093009 50 156 1.7 2.6 0.00 0.00 0.00 81 1007.4
20260902091509 50 184 1.7 4.3 0.00 0.00 0.00 81 1007.6
20260902090006 51 135 2.6 5.2 0.00 0.00 0.00 80 1007.8
20260902084502 51 159 1.7 4.3 0.00 0.00 0.00 80 1007.8
20260902083101 52 199 1.7 6.1 0.00 0.00 0.00 79 1007.7
20260902081605 52 218 2.6 5.2 0.00 0.00 0.00 79 1007.7
20260902080056 53 206 3.5 7.0 0.00 0.00 0.00 78 1007.9
20260902074554 53 218 3.5 8.7 0.00 0.00 0.00 78 1008.0
20260902073056 53 229 4.3 8.7 0.00 0.00 0.00 77 1007.8
20260902071550 53 248 5.2 9.6 0.00 0.00 0.00 76 1007.8
20260902070046 54 222 7.0 10.4 0.00 0.00 0.00 75 1007.7
20260902064550 54 244 6.1 10.4 0.00 0.00 0.00 75 1007.7
20260902063051 54 192 7.0 11.3 0.00 0.00 0.00 74 1007.6
20260902061556 54 229 5.2 8.7 0.00 0.00 0.00 74 1007.6
20260902060041 55 229 7.0 11.3 0.00 0.00 0.00 72 1007.5
20260902054547 55 211 7.0 10.4 0.00 0.00 0.00 72 1007.5
20260902053044 55 237 5.2 12.2 0.00 0.00 0.00 71 1007.4
20260902051538 56 230 7.0 9.6 0.00 0.00 0.00 70 1007.4
20260902050035 56 234 7.0 9.6 0.00 0.00 0.00 69 1007.5
20260902044532 56 246 7.0 9.6 0.00 0.00 0.00 68 1007.3
20260902043030 57 236 6.1 10.4 0.00 0.00 0.00 66 1007.0
20260902041529 57 251 10.4 14.8 0.00 0.00 0.00 65 1006.8
20260902040032 58 268 11.3 15.6 0.00 0.00 0.00 64 1006.6
20260902034527 59 261 13.9 20.9 0.00 0.00 0.00 62 1006.4
20260902033024 59 244 10.4 17.4 0.00 0.00 0.00 60 1006.1
20260902031523 59 249 10.4 13.9 0.00 0.00 0.00 59 1005.9
20260902030021 60 254 7.0 13.9 0.00 0.00 0.00 57 1005.7
20260902024521 61 256 6.1 9.6 0.00 0.00 0.00 55 1005.6